Auckland, New Zealand

1:38 AM NZST on July 22, 2017 (GMT +1200)
Auckland International

Weather History for NZAA - October, 2013

Change the Weather History Date:

Saturday, October 5, 2013

  Actual Average Record
Temperature  
Mean Temperature 62 °F -  
Max Temperature 66 °F 61 °F 69 °F (2001)
Min Temperature 57 °F 50 °F 39 °F (2002)
Degree Days  
Heating Degree Days 4    
Growing Degree Days 12 (Base 50)    
Moisture  
Dew Point 58 °F    
Average Humidity 89    
Maximum Humidity 100    
Minimum Humidity 77    
Precipitation  
Precipitation 0.00 in - - ()
Sea Level Pressure  
Sea Level Pressure 29.93 in    
Wind  
Wind Speed 6 mph ()    
Max Wind Speed 12 mph    
Max Gust Speed -    
Visibility 6.2 miles    
Events Rain    
Averages and records for this station are not official NWS values.
T = Trace of Precipitation, MM = Missing Value Source: Averaged Metar Reports

Daily Weather History Graph

Daily Weather History Graph

Search for Another Location

Airport or City:

Trip Planner

Search our weather history database for the weather conditions in past years. The results will help you decide how hot, cold, wet, or windy it might be!

Date:

Astronomy

Oct. 05, 2013 Rise Set
Actual Time 6:51 AM NZDT 7:28 PM NZDT
Civil Twilight 6:25 AM NZDT 7:54 PM NZDT
Nautical Twilight 5:54 AM NZDT 8:25 PM NZDT
Astronomical Twilight 5:22 AM NZDT 8:56 PM NZDT
Moon 6:35 AM NZDT (10/5) 7:41 PM NZDT (10/5)
Length of Visible Light 13h 29m
Length of Day
12h 36m
Waning Crescent, 0% of the Moon is Illuminated
Oct 5
Waning Crescent
Oct 5
New
Oct 12
First Quarter
Oct 19
Full
Oct 27
Last Quarter

Hourly Weather History & Observations

Time (NZDT) Temp. Dew Point Humidity Pressure Visibility Wind Dir Wind Speed Gust Speed Precip Events Conditions
12:00 AM 60.8 °F 59.0 °F 94% 30.01 in 6.2 mi WSW 6.9 mph - N/A   Overcast
12:30 AM 60.8 °F 57.2 °F 88% 30.01 in 6.2 mi WSW 6.9 mph - N/A   Overcast
1:00 AM 60.8 °F 57.2 °F 88% 30.01 in 6.2 mi WSW 6.9 mph - N/A   Overcast
1:30 AM 60.8 °F 57.2 °F 88% 30.01 in 6.2 mi WSW 5.8 mph - N/A   Overcast
2:00 AM 59.0 °F 57.2 °F 94% 30.01 in 6.2 mi SSW 8.1 mph - N/A Rain Light Rain Showers
2:30 AM 59.0 °F 57.2 °F 94% 29.98 in 6.2 mi SSW 8.1 mph - N/A   Overcast
3:00 AM 59.0 °F 59.0 °F 100% 29.98 in 6.2 mi SSW 5.8 mph - N/A   Overcast
3:30 AM 59.0 °F 59.0 °F 100% 29.98 in 6.2 mi South 6.9 mph - N/A   Overcast
4:00 AM 59.0 °F 57.2 °F 94% 29.95 in 6.2 mi SSW 5.8 mph - N/A   Mostly Cloudy
4:30 AM 59.0 °F 57.2 °F 94% 29.95 in 6.2 mi SSW 4.6 mph - N/A   Mostly Cloudy
5:00 AM 59.0 °F 57.2 °F 94% 29.95 in 6.2 mi South 6.9 mph - N/A   Overcast
5:30 AM 59.0 °F 57.2 °F 94% 29.95 in 6.2 mi South 5.8 mph - N/A   Overcast
6:00 AM 59.0 °F 57.2 °F 94% 29.95 in 6.2 mi South 6.9 mph - N/A   Overcast
6:30 AM 57.2 °F 57.2 °F 100% 29.95 in 6.2 mi SSW 6.9 mph - N/A   Partly Cloudy
7:00 AM 59.0 °F 55.4 °F 88% 29.95 in 6.2 mi SSW 4.6 mph - N/A   Mostly Cloudy
7:30 AM 59.0 °F 57.2 °F 94% 29.95 in 6.2 mi SSE 3.5 mph - N/A   Overcast
8:00 AM 59.0 °F 57.2 °F 94% 29.95 in 6.2 mi SE 1.2 mph - N/A   Overcast
8:30 AM 59.0 °F 57.2 °F 94% 29.95 in 6.2 mi South 2.3 mph - N/A   Overcast
9:00 AM 60.8 °F 57.2 °F 88% 29.95 in 6.2 mi SSW 4.6 mph - N/A   Overcast
9:30 AM 60.8 °F 55.4 °F 82% 29.95 in 6.2 mi South 4.6 mph - N/A   Overcast
10:00 AM 60.8 °F 57.2 °F 88% 29.98 in 6.2 mi SSW 4.6 mph - N/A   Overcast
10:30 AM 60.8 °F 55.4 °F 82% 29.98 in 6.2 mi SSW 5.8 mph - N/A   Overcast
11:00 AM 60.8 °F 57.2 °F 88% 29.98 in 6.2 mi SW 4.6 mph - N/A   Overcast
11:30 AM 62.6 °F 55.4 °F 77% 29.98 in 6.2 mi SW 3.5 mph - N/A   Overcast
12:00 PM 62.6 °F 57.2 °F 82% 29.95 in 6.2 mi SSW 3.5 mph - N/A   Overcast
12:30 PM 62.6 °F 57.2 °F 82% 29.95 in 6.2 mi SW 6.9 mph - N/A   Overcast
1:00 PM 62.6 °F 57.2 °F 82% 29.95 in 6.2 mi SW 9.2 mph - N/A   Scattered Clouds
1:30 PM 64.4 °F 59.0 °F 83% 29.92 in 6.2 mi SW 9.2 mph - N/A   Unknown
2:00 PM 64.4 °F 59.0 °F 83% 29.92 in 6.2 mi WSW 9.2 mph - N/A   Unknown
2:30 PM 66.2 °F 60.8 °F 83% 29.92 in 6.2 mi WSW 10.4 mph - N/A   Unknown
3:00 PM 66.2 °F 60.8 °F 83% 29.89 in 6.2 mi SW 11.5 mph - N/A   Partly Cloudy
3:30 PM 64.4 °F 59.0 °F 83% 29.89 in 6.2 mi SW 10.4 mph - N/A   Overcast
4:00 PM 66.2 °F 59.0 °F 78% 29.86 in 6.2 mi SW 11.5 mph - N/A   Unknown
4:30 PM 66.2 °F 59.0 °F 78% 29.86 in 6.2 mi WSW 10.4 mph - N/A   Unknown
5:00 PM 66.2 °F 59.0 °F 78% 29.83 in 6.2 mi SW 10.4 mph - N/A   Unknown
5:30 PM 64.4 °F 57.2 °F 77% 29.83 in 6.2 mi WSW 11.5 mph - N/A   Partly Cloudy
6:00 PM 62.6 °F 57.2 °F 82% 29.83 in 6.2 mi SW 9.2 mph - N/A   Unknown
6:30 PM 62.6 °F 59.0 °F 88% 29.83 in 6.2 mi SW 9.2 mph - N/A   Unknown
7:00 PM 60.8 °F 57.2 °F 88% 29.83 in 6.2 mi SW 9.2 mph - N/A   Partly Cloudy
7:30 PM 60.8 °F 57.2 °F 88% 29.83 in 6.2 mi SW 6.9 mph - N/A   Unknown
8:00 PM 59.0 °F 57.2 °F 94% 29.86 in 6.2 mi SW 4.6 mph - N/A   Unknown
8:30 PM 59.0 °F 57.2 °F 94% 29.86 in 6.2 mi SW 3.5 mph - N/A   Scattered Clouds
9:00 PM 59.0 °F 57.2 °F 94% 29.86 in 6.2 mi SSW 3.5 mph - N/A   Mostly Cloudy
9:30 PM 60.8 °F 57.2 °F 88% 29.89 in 6.2 mi SW 3.5 mph - N/A   Mostly Cloudy
10:00 PM 59.0 °F 57.2 °F 94% 29.89 in 6.2 mi WSW 3.5 mph - N/A   Mostly Cloudy
10:30 PM 60.8 °F 57.2 °F 88% 29.89 in 6.2 mi NW 3.5 mph - N/A   Mostly Cloudy
11:00 PM 59.0 °F 57.2 °F 94% 29.89 in 6.2 mi Calm Calm - N/A   Mostly Cloudy
11:30 PM 59.0 °F 57.2 °F 94% 29.89 in 6.2 mi SSE 3.5 mph - N/A   Mostly Cloudy